User: anonymous   Login
Location: Unspecified
(0.0000°N, 0.0000°E)
Time: 10:14:11
(UTC+00:00)
Language:

COSMOS 2467 - Orbit

View from above orbital plane
View from above orbital plane
View from above satellite
View from above satellite

Ground track
Ground track

The orbit data is extracted from the following two-line orbital elements,

1 37152U 10043A   17080.70916701 +.00000018 +00000-0 +61951-4 0  9998
2 37152 082.4613 015.6573 0001794 019.1959 340.9195 12.42868796296344
Epoch (UTC): 21 March 2017 17:01:12
Eccentricity: 0.0001794
inclination: 82.4613°
perigee height: 1493 km
apogee height: 1496 km
right ascension of ascending node: 15.6573°
argument of perigee: 19.1959°
revolutions per day: 12.42868796
mean anomaly at epoch: 340.9195°
orbit number at epoch: 29634

The dashed part of the orbit path shows where the satellite is in the earth's shadow,  

DLR